Location: Bodest
(46.3000°N, 22.5667°E)
Time: 12:15:52
(UTC+00:00)

Cosmos 1844 Rocket - Pass Details

Date: 29 May 2022
Orbit: 826 x 843 km, 71.0° (Epoch: 28 June)

Event Time Altitude Azimuth Distance (km) Brightness Sun altitude
Rises 21:27:55 0° 326° (NW) 3,380 7.1 -20.7°
Reaches altitude 10° 21:30:33 10° 317° (NW) 2,440 6.0 -20.8°
Maximum altitude 21:35:31 34° 255° (WSW) 1,334 3.7 -21.0°
Enters shadow 21:37:19 27° 219° (SW) 1,524 3.7 -21.0°
